Hourly Weather Kerewan

Today, 25 September, Friday

Time Temperature Precipitation Wind Pressure Humidity
00:00 +26°C° 0 mm 1 mps 758 mmHg 89%
01:00 +26°C° 0 mm 1 mps 758 mmHg 89%
02:00 +26°C° 0 mm 1 mps 758 mmHg 90%
03:00 +26°C° 0 mm 1 mps 758 mmHg 90%
04:00 +26°C° 0 mm 1 mps 758 mmHg 91%
05:00 +24°C° 0 mm 0 mps 758 mmHg 91%
06:00 +27°C° 0 mm 1 mps 759 mmHg 89%
07:00 +27°C° 0 mm 1 mps 759 mmHg 88%
08:00 +28°C° 0 mm 1 mps 760 mmHg 87%
09:00 +29°C° 0 mm 1 mps 759 mmHg 80%
10:00 +30°C° 0 mm 1 mps 759 mmHg 74%
11:00 +32°C° 0 mm 1 mps 759 mmHg 67%
12:00 +33°C° 0 mm 1 mps 758 mmHg 64%
13:00 +33°C° 0 mm 1 mps 758 mmHg 61%
14:00 +34°C° 0 mm 1 mps 757 mmHg 58%
15:00 +34°C° 0 mm 1 mps 757 mmHg 61%
16:00 +33°C° 0 mm 1 mps 757 mmHg 65%
17:00 +33°C° 0 mm 1 mps 757 mmHg 69%
18:00 +32°C° 0 mm 1 mps 757 mmHg 71%
19:00 +31°C° 0 mm 1 mps 758 mmHg 73%
20:00 +28°C° 0 mm 0 mps 758 mmHg 75%
21:00 +29°C° 0 mm 1 mps 758 mmHg 77%
22:00 +29°C° 0 mm 1 mps 759 mmHg 78%
23:00 +29°C° 0 mm 1 mps 759 mmHg 79%

Tomorrow, 26 September, Saturday

Time Temperature Precipitation Wind Pressure Humidity
00:00 +28°C° 0.2 mm 1 mps 759 mmHg 82%
01:00 +28°C° 0.2 mm 2 mps 758 mmHg 84%
02:00 +27°C° 0.2 mm 2 mps 758 mmHg 87%
03:00 +27°C° 0 mm 2 mps 757 mmHg 88%
04:00 +27°C° 0 mm 2 mps 757 mmHg 90%
05:00 +27°C° 0 mm 1 mps 757 mmHg 92%
06:00 +28°C° 0 mm 2 mps 757 mmHg 90%
07:00 +28°C° 0 mm 2 mps 758 mmHg 87%
08:00 +29°C° 0 mm 3 mps 758 mmHg 85%
09:00 +31°C° 0 mm 3 mps 758 mmHg 79%
10:00 +33°C° 0 mm 3 mps 758 mmHg 74%
11:00 +34°C° 0 mm 3 mps 758 mmHg 69%
12:00 +34°C° 0 mm 4 mps 757 mmHg 69%
13:00 +35°C° 0 mm 4 mps 756 mmHg 68%
14:00 +35°C° 0 mm 4 mps 756 mmHg 68%
15:00 +34°C° 0 mm 4 mps 755 mmHg 72%
16:00 +33°C° 0 mm 4 mps 755 mmHg 76%
17:00 +32°C° 0 mm 4 mps 755 mmHg 80%
18:00 +30°C° 0 mm 4 mps 755 mmHg 83%
19:00 +29°C° 0 mm 4 mps 755 mmHg 86%
20:00 +28°C° 0 mm 3 mps 756 mmHg 89%
21:00 +28°C° 0 mm 3 mps 756 mmHg 90%
22:00 +28°C° 0 mm 3 mps 756 mmHg 92%
23:00 +28°C° 0 mm 3 mps 756 mmHg 93%

Day after tomorrow, 27 September, Sunday

Time Temperature Precipitation Wind Pressure Humidity
00:00 +27°C° 0 mm 3 mps 756 mmHg 94%
01:00 +27°C° 0 mm 3 mps 756 mmHg 95%
02:00 +27°C° 0 mm 3 mps 755 mmHg 96%
03:00 +27°C° 0 mm 3 mps 755 mmHg 95%
04:00 +27°C° 0 mm 3 mps 755 mmHg 95%
05:00 +27°C° 0 mm 3 mps 755 mmHg 94%
06:00 +28°C° 0 mm 4 mps 755 mmHg 91%
07:00 +29°C° 0 mm 5 mps 756 mmHg 88%
08:00 +29°C° 0 mm 6 mps 756 mmHg 84%
09:00 +32°C° 0 mm 6 mps 756 mmHg 79%
10:00 +33°C° 0 mm 6 mps 756 mmHg 74%
11:00 +34°C° 0 mm 5 mps 756 mmHg 69%
12:00 +34°C° 0 mm 6 mps 756 mmHg 68%
13:00 +34°C° 0 mm 6 mps 755 mmHg 67%
14:00 +34°C° 0 mm 6 mps 755 mmHg 66%
15:00 +33°C° 0 mm 5 mps 755 mmHg 70%
16:00 +32°C° 0 mm 5 mps 755 mmHg 73%
17:00 +30°C° 0 mm 5 mps 755 mmHg 77%
18:00 +30°C° 0 mm 4 mps 755 mmHg 80%
19:00 +29°C° 0 mm 4 mps 756 mmHg 83%
20:00 +28°C° 0 mm 3 mps 756 mmHg 86%
21:00 +27°C° 0 mm 3 mps 756 mmHg 88%
22:00 +27°C° 0 mm 3 mps 757 mmHg 89%
23:00 +27°C° 0 mm 3 mps 757 mmHg 91%

28 September, Monday

Time Temperature Precipitation Wind Pressure Humidity
00:00 +27°C° 0 mm 2 mps 756 mmHg 92%
01:00 +27°C° 0 mm 2 mps 756 mmHg 92%
02:00 +26°C° 0 mm 2 mps 756 mmHg 93%
03:00 +26°C° 0 mm 2 mps 756 mmHg 93%
04:00 +26°C° 0 mm 2 mps 756 mmHg 93%
05:00 +26°C° 0 mm 2 mps 756 mmHg 93%
06:00 +27°C° 0 mm 2 mps 757 mmHg 90%
07:00 +28°C° 0 mm 2 mps 757 mmHg 87%
08:00 +29°C° 0 mm 3 mps 757 mmHg 84%
09:00 +30°C° 0 mm 3 mps 757 mmHg 78%
10:00 +31°C° 0 mm 3 mps 757 mmHg 73%
11:00 +33°C° 0 mm 3 mps 757 mmHg 67%
12:00 +33°C° 0 mm 3 mps 757 mmHg 66%
13:00 +33°C° 0 mm 3 mps 756 mmHg 66%
14:00 +34°C° 0 mm 3 mps 756 mmHg 65%
15:00 +33°C° 0 mm 3 mps 756 mmHg 68%
16:00 +33°C° 0 mm 3 mps 756 mmHg 71%
17:00 +31°C° 0 mm 3 mps 755 mmHg 74%
18:00 +30°C° 0 mm 3 mps 756 mmHg 78%
19:00 +29°C° 0 mm 2 mps 756 mmHg 82%
20:00 +28°C° 0 mm 2 mps 757 mmHg 85%
21:00 +27°C° 0 mm 2 mps 757 mmHg 86%
22:00 +27°C° 0 mm 2 mps 757 mmHg 87%
23:00 +27°C° 0 mm 2 mps 757 mmHg 88%

29 September, Tuesday

Time Temperature Precipitation Wind Pressure Humidity
00:00 +27°C° 0 mm 2 mps 757 mmHg 88%
01:00 +27°C° 0 mm 2 mps 757 mmHg 89%
02:00 +27°C° 0 mm 1 mps 757 mmHg 90%
03:00 +26°C° 0 mm 1 mps 757 mmHg 91%
04:00 +26°C° 0 mm 1 mps 757 mmHg 91%
05:00 +26°C° 0 mm 1 mps 757 mmHg 92%
06:00 +27°C° 0 mm 1 mps 757 mmHg 88%
07:00 +28°C° 0 mm 1 mps 758 mmHg 84%
08:00 +29°C° 0 mm 1 mps 758 mmHg 80%
09:00 +30°C° 0 mm 1 mps 758 mmHg 75%
10:00 +32°C° 0 mm 1 mps 758 mmHg 69%
11:00 +33°C° 0 mm 1 mps 758 mmHg 63%
12:00 +34°C° 0 mm 1 mps 757 mmHg 62%
13:00 +34°C° 0 mm 1 mps 756 mmHg 60%
14:00 +35°C° 0 mm 1 mps 756 mmHg 58%
15:00 +35°C° 0.8 mm 2 mps 756 mmHg 64%
16:00 +32°C° 0.8 mm 2 mps 756 mmHg 70%
17:00 +31°C° 0.8 mm 3 mps 756 mmHg 77%
18:00 +30°C° 0.2 mm 3 mps 756 mmHg 81%
19:00 +29°C° 0.2 mm 3 mps 757 mmHg 85%
20:00 +28°C° 0.2 mm 3 mps 757 mmHg 88%
21:00 +28°C° 0.2 mm 3 mps 757 mmHg 89%
22:00 +28°C° 0.2 mm 2 mps 757 mmHg 90%
23:00 +28°C° 0.2 mm 2 mps 758 mmHg 90%

30 September, Wednesday

Time Temperature Precipitation Wind Pressure Humidity
00:00 +28°C° 0.1 mm 2 mps 757 mmHg 91%
01:00 +27°C° 0.1 mm 2 mps 757 mmHg 91%
02:00 +27°C° 0.1 mm 2 mps 756 mmHg 91%
03:00 +27°C° 0.3 mm 2 mps 756 mmHg 91%
04:00 +27°C° 0.3 mm 2 mps 756 mmHg 91%
05:00 +27°C° 0.3 mm 2 mps 756 mmHg 90%
06:00 +28°C° 0 mm 3 mps 756 mmHg 88%
07:00 +28°C° 0 mm 3 mps 757 mmHg 85%
08:00 +29°C° 0 mm 3 mps 757 mmHg 82%
09:00 +31°C° 0 mm 3 mps 757 mmHg 74%
10:00 +34°C° 0 mm 3 mps 757 mmHg 65%
11:00 +35°C° 0 mm 3 mps 757 mmHg 57%
12:00 +36°C° 0 mm 3 mps 756 mmHg 54%
13:00 +37°C° 0 mm 2 mps 756 mmHg 51%
14:00 +37°C° 0 mm 2 mps 755 mmHg 48%
15:00 +36°C° 0.3 mm 3 mps 755 mmHg 55%
16:00 +35°C° 0.3 mm 3 mps 755 mmHg 62%
17:00 +33°C° 0.3 mm 3 mps 755 mmHg 69%
18:00 +32°C° 0.1 mm 4 mps 755 mmHg 73%
19:00 +30°C° 0.1 mm 4 mps 756 mmHg 78%
20:00 +29°C° 0.1 mm 4 mps 756 mmHg 82%
21:00 +29°C° 0 mm 4 mps 756 mmHg 83%
22:00 +28°C° 0 mm 3 mps 757 mmHg 83%
23:00 +28°C° 0 mm 3 mps 757 mmHg 84%
Show more